Погода в Калининграде

Погода в Калининграде : погода сейчас, прогноз погоды и архив. Всё, что Вы хотите узнать о погоде в Калининграде!

Хотите узнать прогноз погоды в Калининграде? Тогда Вам сюда: Погода в Калининграде

Поиск расширенной информации на нашем сайте:

Другие новости

Новости СМИ2

Главная страница сайта

Новости сайта

02.10.2013

Напоминаем, что на нашем новом сайте вы можете получить высокодетализированные прогнозы погоды по пунктам России, СНГ и мира (включающие важные для авиации метеовеличины, такие как направление и скорость ветра, видимость, явления погоды, количество и форма облачности, нижняя и верхняя граница облачности), а также ознакомиться с разнообразными материалами по авиационной метеорологии и подборкой полезных ссылок на эту тему.

Сайт Метеоцентр.Азия посвящён разработке технологий оптимизации авиаметеорологического обслуживания, включая проектирование и перспективное создание нескольких автоматизированных авиаметеорологических систем:
- система выпуска высокодетальных прогностических карт явлений погоды для нижнего воздушного пространства по России и ближнему зарубежью;
- система верификации прогнозов TAF (выпускаемых синоптиками официальных АМСГ РФ и ближнего зарубежья) и AUTOTAF (выпускаемых сайтом Метеоцентр.Азия) - выявление ошибок, онлайн-сопоставление с фактической погодой METAR, автоматическое внесение коррективов в прогнозы при резком отклонении фактической погоды от прогноза, подсчёт оправдываемости прогнозов по элементам и в целом;
- система обработки, анализа и отображения авиаметеорологической информации для применения провайдерами метеорологической информации.

Рекомендуем: Стоимость услуги по Выравниванию земельного участка.

Погода в Калининграде - сегодня

Время (UTC), дата Ветер
(°,м/с) 
Видим.   Явления Облачность Т
(°С)
Тd
(°С)
f(%) Тe
(°С)
Pmin
(гПа)
dP
(гПа)
Po
(мм)
O2
(г/м3)
Тmin Tmax R s Состояние
почвы
18 27.03.17 260 (З) 2-5{06}  10 км    3/0 средняя, верхняя 
[Ac trans|Ci fib]
+6.6 +4.1 84 +6  1017  -1.9  761  299    +13.5       
21 27.03.17 280 (З) 3-9{11}  10 км    3/3 600 м 
[Sc]
+7.3 +4.3 81 +7  1016.3  -0.7  760  298           
00 28.03.17 270 (З) 2-5{09}  4000 м  дымка  9/9 600 м 
[Sc]
+6 +5 93 +6  1016.2  -0.1  760  299           
03 28.03.17 270 (З) 1-2{06}  4000 м  дымка  9/9 600 м 
[Sc]
+5.3 +4.3 93 +6  1016.8  0.6  761  300  +5.3         
06 28.03.17 280 (З) 1-2{04}  4000 м  дымка  9/9 600 м 
[Sc]
+4.8 +4.2 96 +6  1018.3  1.5  762  301  +4.5        влажная 
09 28.03.17 210 (ЮЗ) 2-4{04}  10 км    3/3 1000 м 
[Cu med, cong]
+8.4 +4.8 78 +8  1019.5  1.2  763  297           
12 28.03.17 250 (З) 2-5{06}  10 км    1/1 1000 м 
[Cu med, cong]
+10 +4.9 71 +10  1019.4  0.1  763  296           
15 28.03.17 250 (З) 2-4{06}  10 км    ясно 
+10 +5 71 +10  1018.5  -0.9  762  295           
18 28.03.17 360 (С) 1-1{04}  10 км    1/0 верхняя 
[Ci fib]
+5.6 +0.2 68 +6  1018.4  0.1  762  301    +11.7       
21 28.03.17 030 (СВ) 1-3{03}  10 км    9/9 600 м 
[Sc]
+4.4 +0.1 74 +5  1018.3  0.1  762  302           
00 29.03.17 070 (В) 1-3{03}  10 км    10/10 600 м 
[Sc]
+4.7 +1.5 80 +6  1017.6  -0.7  761  301           
03 29.03.17 100 (В) 2-3{04}  10 км    9/9 600 м 
[Sc]
+4.3 -0.1 73 +4  1015.7  -1.8  760  301  +4         
06 29.03.17 130 (ЮВ) 1-2{03}  10 км    9/0 верхняя 
[Cs]
+4.5 -0 73 +5  1014.8  -0.9  759  301  +2.2        влажная 
09 29.03.17 260 (З) 2-4{06}  10 км    9/9 300 м 
[Cu Sc]
+5.9 +3.2 83 +6  1014.4  -0.4  759  299           
12 29.03.17 260 (З) 2-4{06}  10 км    10/8 300 м средняя 
[Sc|Ac und]
+6 +3.8 86 +6  1013.5  -0.9  758  298           
15 29.03.17 290 (З) 2-5{07}  4000 м  слаб. дождь  10/10 300 м 
[Frnb|Ns]
+6.3 +5.2 93 +6  1012.8  -0.7  758  298         
18 29.03.17 300 (СЗ) 3-7{09}  4000 м  слаб. дождь  10/10 300 м 
[Frnb|Ns]
+4 +3.4 96 +3  1014.7  1.9  759  301    +8     
21 29.03.17 310 (СЗ) 2-5{08}  4000 м  дымка{дождь}  10/10 600 м 
[Cu Sc]
+4.3 +3.1 92 +4  1018.1  3.4  762  302           
00 30.03.17 070 (В) 1-3{05}  4000 м  дымка{ливн. осадки, дождь}  10/10 600 м 
[Sc]
+2.8 +2.4 97 +4  1020.7  2.5  763  304           
03 30.03.17 080 (В) 1-3{04}  4000 м  дымка  9/9 600 м 
[Sc]
+2 +1 93 +3  1023  2.3  765  306  +2    0.2     
06 30.03.17 110 (В) 2-3{03}  10 км    4/0 средняя 
[Ac cast]
+2 -0.7 82 +1  1025.5  2.5  767  307  +0.5    0.1    влажная 
09 30.03.17 130 (ЮВ) 2-4{05}  10 км    ясно 
+6.6 -0.8 59 +6  1026.5  768  302           
12 30.03.17 230 (ЮЗ) 2-5{05}  10 км    9/9 600 м 
[Sc]
+6.7 +1.4 69 +7  1026.2  -0.3  768  302           
15 30.03.17 180 (Ю) 1-3{05}  10 км    10/10 600 м 
[Sc]
+7.5 +2.1 69 +8  1024.8  -1.5  767  300           
18 30.03.17 170 (Ю) 1-2{03}  10 км    10/10 600 м 
[Sc]
+7.1 +2.7 74 +8  1023.2  -1.5  765  300    +8.5       
Время (UTC), дата Ветер
(°,м/с) 
Видим.   Явления Облачность Т
(°С)
Тd
(°С)
f(%) Тe
(°С)
Pmin
(гПа)
dP
(гПа)
Po
(мм)
O2
(г/м3)
Тmin Tmax R s Состояние
почвы

Для получения пояснительной информации подведите курсор к названию столбца.

ПОГОДА в Калининграде - архив

Всё, что Вы хотите узнать о погоде в Калининграде - удобно и подробно!

Выберите нужную дату (начиная с 1 января 2015* года) и нажмите кнопку "Найти".
Будут отображены архивные сводки погоды по пункту Калининград, начиная с указанной даты.


Отображать данные в формате CSV (для использования в таблицах Excel)


Внимание! Наш архив погоды предназначен исключительно для личного некоммерческого использования в познавательных целях. Если Вам необходимы официальные справки о состоянии погоды (для производственных, юридических, коммерческих и т.п. целей), обращайтесь в органы Росгидромета.

*Примечание: данная дата относится к архиву по метеостанциям СССР (Россия, СНГ, Балтия).
Архив по метеостанциям Зарубежной Европы и Азии (кроме Китая) хранится 10 дней, по другим регионам земного шара (Китай, Африка, Америка, Австралия, Океания) - 1 день.

Калининград - район местоположения метеостанции


Название, широта, долгота, высота метеостанции:
Калининград (город) 54.7°ш. 20.6°д. 21 м над ур. моря [Российская Федерация]

Дополнительная информация

В oтличие oт бoльшинства пoгoдных сайтoв мы публикуем пoдрoбную метеoинфoрмацию в детальнoм прoфессиoнальнoм фoрмате.

Характеристики температуры и влажнoсти вoздуха измеряются на высoте 2 м в тени вдали oт зданий и деревьев.
Скoрoсть ветра измеряется на высoте 10 м (на урoвне рoста челoвека скoрoсть ветра ниже в 1.5-2 раза). Если метеoстанция нахoдится в гoрoде или в лесу, тo скoрoсть ветра занижена на 2-4 м/с пo сравнению с oткрытым местoм. Скoрoсть ветра над акватoриями крупных рек и oзёр, а также на вершинах хoлмoв на 2-5 м/с выше, чем в oбычных услoвиях.
Атмoсфернoе давление в разных тoчках местнoсти мoжет значительнo oтличаться oт давления на метеoстанции, в зависимoсти oт услoвий рельефа (при пoдъёме на 10 м давление пoнижается примернo на 1 мм рт.ст.).